• In United Kingdom
  • List of Countries
  • For 7 days
  • Water Temperature
  • Satellite Maps
  • Weather Map
  • Weather Widgets
  • user-avatar
    Login

    Hourly Weather Fier

    Today, 13 December, Wednesday

    Time Temperature Precipitation Wind Pressure Humidity
    00:00 +10°C° 0 mm 6 mps 765 mmHg 89%
    01:00 +10°C° 0 mm 6 mps 765 mmHg 89%
    02:00 +10°C° 0 mm 6 mps 765 mmHg 89%
    03:00 +10°C° 0 mm 6 mps 765 mmHg 89%
    04:00 +10°C° 0 mm 6 mps 765 mmHg 89%
    05:00 +10°C° 0 mm 6 mps 765 mmHg 89%
    06:00 +10°C° 0 mm 6 mps 765 mmHg 88%
    07:00 +10°C° 0 mm 6 mps 765 mmHg 88%
    08:00 +11°C° 0 mm 6 mps 765 mmHg 84%
    09:00 +14°C° 0 mm 6 mps 765 mmHg 80%
    10:00 +15°C° 0 mm 6 mps 765 mmHg 76%
    11:00 +16°C° 0 mm 7 mps 764 mmHg 73%
    12:00 +16°C° 0 mm 7 mps 764 mmHg 70%
    13:00 +17°C° 0 mm 7 mps 763 mmHg 66%
    14:00 +16°C° 0 mm 7 mps 763 mmHg 71%
    15:00 +15°C° 0 mm 7 mps 763 mmHg 76%
    16:00 +14°C° 0 mm 6 mps 762 mmHg 81%
    17:00 +14°C° 0.3 mm 6 mps 762 mmHg 83%
    18:00 +13°C° 0.3 mm 6 mps 762 mmHg 85%
    19:00 +13°C° 0.3 mm 6 mps 762 mmHg 87%
    20:00 +13°C° 1 mm 6 mps 762 mmHg 89%
    21:00 +13°C° 1 mm 6 mps 762 mmHg 91%
    22:00 +13°C° 1 mm 6 mps 762 mmHg 93%
    23:00 +13°C° 1.1 mm 5 mps 762 mmHg 93%

    Tomorrow, 14 December, Thursday

    Time Temperature Precipitation Wind Pressure Humidity
    00:00 +13°C° 1.1 mm 5 mps 762 mmHg 93%
    01:00 +13°C° 1.1 mm 4 mps 762 mmHg 93%
    02:00 +12°C° 0.3 mm 4 mps 762 mmHg 93%
    03:00 +12°C° 0.3 mm 3 mps 761 mmHg 93%
    04:00 +11°C° 0.3 mm 3 mps 761 mmHg 92%
    05:00 +11°C° 0 mm 3 mps 762 mmHg 92%
    06:00 +11°C° 0 mm 3 mps 762 mmHg 92%
    07:00 +10°C° 0 mm 3 mps 762 mmHg 92%
    08:00 +11°C° 0 mm 3 mps 763 mmHg 85%
    09:00 +12°C° 0 mm 3 mps 763 mmHg 77%
    10:00 +13°C° 0 mm 3 mps 763 mmHg 69%
    11:00 +14°C° 0 mm 2 mps 763 mmHg 65%
    12:00 +14°C° 0 mm 2 mps 762 mmHg 61%
    13:00 +15°C° 0 mm 1 mps 762 mmHg 57%
    14:00 +14°C° 0 mm 1 mps 762 mmHg 61%
    15:00 +13°C° 0 mm 2 mps 762 mmHg 65%
    16:00 +12°C° 0 mm 2 mps 762 mmHg 69%
    17:00 +12°C° 0 mm 2 mps 762 mmHg 70%
    18:00 +10°C° 0 mm 2 mps 763 mmHg 72%
    19:00 +10°C° 0 mm 3 mps 763 mmHg 73%
    20:00 +10°C° 0 mm 3 mps 763 mmHg 74%
    21:00 +9°C° 0 mm 3 mps 763 mmHg 75%
    22:00 +8°C° 0 mm 4 mps 763 mmHg 76%
    23:00 +8°C° 0 mm 4 mps 762 mmHg 76%

    Day after tomorrow, 15 December, Friday

    Time Temperature Precipitation Wind Pressure Humidity
    00:00 +8°C° 0 mm 4 mps 762 mmHg 77%
    01:00 +8°C° 0 mm 5 mps 762 mmHg 77%
    02:00 +8°C° 0 mm 5 mps 762 mmHg 77%
    03:00 +8°C° 0 mm 5 mps 761 mmHg 77%
    04:00 +8°C° 0 mm 5 mps 761 mmHg 76%
    05:00 +8°C° 0 mm 5 mps 761 mmHg 76%
    06:00 +8°C° 0 mm 5 mps 761 mmHg 76%
    07:00 +8°C° 0 mm 6 mps 761 mmHg 76%
    08:00 +9°C° 0 mm 6 mps 761 mmHg 73%
    09:00 +11°C° 0 mm 7 mps 761 mmHg 71%
    10:00 +13°C° 0 mm 8 mps 760 mmHg 68%
    11:00 +13°C° 0 mm 8 mps 760 mmHg 69%
    12:00 +15°C° 0 mm 8 mps 760 mmHg 70%
    13:00 +16°C° 0 mm 8 mps 759 mmHg 71%
    14:00 +15°C° 0 mm 8 mps 759 mmHg 75%
    15:00 +13°C° 0 mm 8 mps 758 mmHg 79%
    16:00 +12°C° 0 mm 7 mps 758 mmHg 83%
    17:00 +11°C° 0 mm 7 mps 758 mmHg 84%
    18:00 +11°C° 0 mm 8 mps 758 mmHg 85%
    19:00 +10°C° 0 mm 8 mps 759 mmHg 87%
    20:00 +10°C° 0 mm 8 mps 758 mmHg 86%
    21:00 +11°C° 0 mm 8 mps 758 mmHg 86%
    22:00 +11°C° 0 mm 8 mps 758 mmHg 85%
    23:00 +11°C° 0 mm 8 mps 758 mmHg 86%

    16 December, Saturday

    Time Temperature Precipitation Wind Pressure Humidity
    00:00 +11°C° 0 mm 8 mps 758 mmHg 86%
    01:00 +11°C° 0 mm 8 mps 758 mmHg 87%
    02:00 +11°C° 0 mm 8 mps 758 mmHg 87%
    03:00 +11°C° 0 mm 7 mps 757 mmHg 88%
    04:00 +11°C° 0 mm 7 mps 757 mmHg 88%
    05:00 +11°C° 0 mm 7 mps 757 mmHg 88%
    06:00 +11°C° 0 mm 7 mps 756 mmHg 88%
    07:00 +11°C° 0 mm 7 mps 756 mmHg 87%
    08:00 +12°C° 0.1 mm 7 mps 756 mmHg 86%
    09:00 +14°C° 0.1 mm 7 mps 756 mmHg 84%
    10:00 +15°C° 0.1 mm 7 mps 756 mmHg 83%
    11:00 +15°C° 0.6 mm 7 mps 755 mmHg 82%
    12:00 +15°C° 0.6 mm 7 mps 755 mmHg 82%
    13:00 +15°C° 0.6 mm 7 mps 754 mmHg 82%
    14:00 +14°C° 1.4 mm 7 mps 754 mmHg 84%
    15:00 +14°C° 1.4 mm 7 mps 753 mmHg 87%
    16:00 +12°C° 1.4 mm 7 mps 753 mmHg 89%
    17:00 +13°C° 2.6 mm 6 mps 753 mmHg 91%
    18:00 +12°C° 2.6 mm 5 mps 753 mmHg 92%
    19:00 +12°C° 2.6 mm 4 mps 752 mmHg 94%
    20:00 +12°C° 3 mm 4 mps 752 mmHg 93%
    21:00 +12°C° 3 mm 3 mps 752 mmHg 92%
    22:00 +12°C° 3 mm 3 mps 752 mmHg 91%
    23:00 +12°C° 1 mm 3 mps 752 mmHg 93%

    17 December, Sunday

    Time Temperature Precipitation Wind Pressure Humidity
    00:00 +11°C° 1 mm 3 mps 752 mmHg 95%
    01:00 +11°C° 1 mm 3 mps 752 mmHg 96%
    02:00 +11°C° 0.8 mm 3 mps 753 mmHg 96%
    03:00 +11°C° 0.8 mm 4 mps 753 mmHg 96%
    04:00 +10°C° 0.8 mm 5 mps 754 mmHg 96%
    05:00 +11°C° 0.7 mm 4 mps 754 mmHg 95%
    06:00 +11°C° 0.7 mm 4 mps 755 mmHg 94%
    07:00 +11°C° 0.7 mm 4 mps 756 mmHg 94%
    08:00 +11°C° 0.3 mm 4 mps 757 mmHg 89%
    09:00 +11°C° 0.3 mm 4 mps 757 mmHg 84%
    10:00 +12°C° 0.3 mm 3 mps 758 mmHg 79%
    11:00 +12°C° 0.3 mm 3 mps 758 mmHg 77%
    12:00 +12°C° 0.3 mm 4 mps 758 mmHg 75%
    13:00 +12°C° 0.3 mm 4 mps 758 mmHg 73%
    14:00 +11°C° 0.4 mm 3 mps 758 mmHg 76%
    15:00 +11°C° 0.4 mm 3 mps 759 mmHg 80%
    16:00 +10°C° 0.4 mm 3 mps 759 mmHg 83%
    17:00 +10°C° 0.3 mm 2 mps 760 mmHg 85%
    18:00 +9°C° 0.3 mm 2 mps 760 mmHg 86%
    19:00 +9°C° 0.3 mm 2 mps 761 mmHg 87%
    20:00 +9°C° 0.1 mm 2 mps 761 mmHg 87%
    21:00 +8°C° 0.1 mm 2 mps 761 mmHg 86%
    22:00 +8°C° 0.1 mm 2 mps 762 mmHg 86%
    23:00 +8°C° 0.1 mm 3 mps 762 mmHg 86%

    18 December, Monday

    Time Temperature Precipitation Wind Pressure Humidity
    00:00 +8°C° 0.1 mm 3 mps 762 mmHg 86%
    01:00 +8°C° 0.1 mm 3 mps 762 mmHg 85%
    02:00 +8°C° 0.2 mm 3 mps 763 mmHg 85%
    03:00 +8°C° 0.2 mm 3 mps 763 mmHg 86%
    04:00 +8°C° 0.2 mm 3 mps 763 mmHg 86%
    05:00 +8°C° 0.1 mm 3 mps 763 mmHg 85%
    06:00 +8°C° 0.1 mm 3 mps 763 mmHg 84%
    07:00 +7°C° 0.1 mm 3 mps 764 mmHg 84%
    08:00 +8°C° 0 mm 3 mps 764 mmHg 79%
    09:00 +9°C° 0 mm 3 mps 764 mmHg 75%
    10:00 +9°C° 0 mm 3 mps 764 mmHg 71%
    11:00 +10°C° 0.1 mm 4 mps 764 mmHg 69%
    12:00 +10°C° 0.1 mm 4 mps 764 mmHg 68%
    13:00 +10°C° 0.1 mm 4 mps 763 mmHg 67%
    14:00 +8°C° 0.1 mm 4 mps 763 mmHg 70%
    15:00 +8°C° 0.1 mm 5 mps 763 mmHg 73%
    16:00 +7°C° 0.1 mm 5 mps 763 mmHg 76%
    17:00 +7°C° 0 mm 5 mps 763 mmHg 77%
    18:00 +6°C° 0 mm 4 mps 764 mmHg 79%
    19:00 +6°C° 0 mm 4 mps 764 mmHg 80%
    20:00 +5°C° 0 mm 4 mps 764 mmHg 80%
    21:00 +5°C° 0 mm 4 mps 764 mmHg 81%
    22:00 +4°C° 0 mm 4 mps 765 mmHg 81%
    23:00 +4°C° 0 mm 4 mps 765 mmHg 81%
    Show more